Location: Rancho Santa Fe Post Office
(33.0184°N, 117.2026°W)
Time: 02:46:00
(UTC+00:00)

Cosmos 2322 Rocket - Pass Details

Date: 10 September 2024
Orbit: 831 x 850 km, 71.0° (Epoch: 06 October)

Event Time Altitude Azimuth Distance (km) Brightness Sun altitude
Rises 12:06:53 0° 335° (NNW) 3,410 5.3 -17.8°
Reaches altitude 10° 12:09:22 10° 332° (NNW) 2,469 4.5 -17.3°
Maximum altitude 12:14:56 61° 253° (WSW) 950 2.1 -16.2°
Drops below altitude 10° 12:20:27 10° 174° (S) 2,442 4.5 -15.0°
Sets 12:22:54 0° 171° (S) 3,370 5.3 -14.5°
